Tracking 32523 objects as of 12-Dec-2025
HD Live streaming from Space Station
objects crossing your sky now

GAOFEN 12 04

Track GAOFEN 12 04 now!
10-day predictions


NORAD ID: 57654
Int'l Code: 2023-123A
Perigee: 636.5 km
Apogee: 638.3 km
Inclination: 97.9 °
Period: 97.3 minutes
Semi major axis: 7008 km
RCS: Unknown
Launch date: August 20, 2023
Source: People's Republic of China (PRC)
Launch site: Jiuquan Satellite Launch Center, China (JSC)
Your satellite tracking list
Your tracking list is empty




NASA's NSSDC Master Catalog

Two Line Element Set (TLE):
1 57654U 23123A   25346.33421536  .00002371  00000-0  32249-3 0  9991
2 57654  97.9116 262.0977 0001331  74.4041 285.7318 14.79698953124993
Source of the keplerian elements: AFSPC